QPF
0.02 0.01 0.01 0.01 0.02 0.03 0.03 0.02 0.01 0.03 0.03 0.04 0.03 0.02 0.02 0.02 0.03 0.03 0.04 0.08 0.09 0.08 0.08 0.06 0.05 0.05 0.07 0.07 0.04 0.04 0.06 0.06 0.05 0.04 0.03 0.03 0.04 0.04 0.03 0.03 0.05 0.06 0.07
0.02 0.01 0.01 0.02 0.03 0.03 0.03 0.03 0.02 0.02 0.03 0.05 0.04 0.02 0.01 0.02 0.03 0.03 0.04 0.05 0.07 0.07 0.07 0.05 0.04 0.04 0.04 0.04 0.04 0.03 0.04 0.06 0.06 0.04 0.04 0.05 0.05 0.05 0.04 0.03 0.03 0.04 0.05
0.02 0.01 0.01 0.01 0.03 0.03 0.04 0.04 0.03 0.02 0.03 0.04 0.04 0.03 0.03 0.02 0.03 0.04 0.05 0.04 0.05 0.07 0.06 0.05 0.04 0.03 0.03 0.03 0.03 0.04 0.04 0.04 0.06 0.05 0.04 0.05 0.05 0.04 0.03 0.03 0.04 0.04 0.04
0.02 0.02 0.01 0.02 0.02 0.02 0.03 0.04 0.04 0.04 0.04 0.05 0.05 0.04 0.05 0.04 0.04 0.03 0.03 0.03 0.03 0.05 0.06 0.04 0.04 0.04 0.03 0.03 0.04 0.04 0.04 0.04 0.04 0.04 0.03 0.04 0.04 0.04 0.03 0.04 0.06 0.06 0.06
0.04 0.03 0.02 0.02 0.02 0.02 0.02 0.03 0.04 0.04 0.04 0.05 0.05 0.05 0.05 0.06 0.06 0.04 0.04 0.03 0.04 0.04 0.04 0.04 0.04 0.04 0.04 0.05 0.05 0.04 0.03 0.05 0.05 0.04 0.03 0.03 0.03 0.03 0.04 0.04 0.04 0.05 0.06
0.07 0.06 0.05 0.05 0.04 0.03 0.03 0.03 0.03 0.04 0.04 0.04 0.05 0.06 0.06 0.05 0.05 0.04 0.04 0.04 0.04 0.04 0.05 0.05 0.04 0.04 0.05 0.05 0.05 0.04 0.04 0.03 0.04 0.05 0.05 0.06 0.04 0.03 0.03 0.03 0.03 0.05 0.05
0.07 0.07 0.06 0.05 0.04 0.03 0.03 0.03 0.04 0.04 0.04 0.03 0.03 0.04 0.05 0.04 0.04 0.05 0.04 0.03 0.03 0.04 0.05 0.05 0.05 0.05 0.05 0.06 0.05 0.04 0.04 0.04 0.04 0.05 0.06 0.07 0.07 0.04 0.03 0.03 0.03 0.03 0.05
0.05 0.05 0.05 0.04 0.03 0.03 0.02 0.02 0.02 0.02 0.03 0.03 0.03 0.03 0.03 0.04 0.04 0.04 0.04 0.03 0.04 0.06 0.06 0.06 0.06 0.06 0.06 0.05 0.04 0.04 0.03 0.03 0.03 0.04 0.05 0.06 0.07 0.06 0.04 0.04 0.03 0.03 0.03
0.04 0.03 0.03 0.03 0.02 0.03 0.02 0.02 0.02 0.02 0.02 0.03 0.03 0.03 0.02 0.02 0.03 0.04 0.03 0.04 0.06 0.08 0.09 0.10 0.09 0.08 0.07 0.06 0.04 0.05 0.03 0.03 0.03 0.04 0.04 0.04 0.05 0.05 0.05 0.05 0.05 0.05 0.04
0.03 0.03 0.02 0.03 0.03 0.03 0.02 0.01 0.02 0.02 0.03 0.03 0.03 0.03 0.03 0.03 0.04 0.04 0.04 0.06 0.07 0.09 0.10 0.10 0.10 0.09 0.09 0.09 0.06 0.05 0.04 0.03 0.03 0.03 0.04 0.04 0.03 0.03 0.03 0.04 0.05 0.06 0.06
0.04 0.03 0.02 0.02 0.02 0.01 0.01 0.01 0.01 0.01 0.02 0.02 0.03 0.04 0.05 0.05 0.06 0.08 0.10 0.11 0.09 0.09 0.09 0.08 0.08 0.10 0.14 0.13 0.09 0.07 0.05 0.04 0.03 0.03 0.03 0.02 0.02 0.03 0.03 0.03 0.05 0.06 0.06
0.04 0.03 0.02 0.03 0.03 0.01 0.01 0.01 0.01 0.01 0.02 0.03 0.04 0.04 0.06 0.07 0.07 0.10 0.10 0.09 0.09 0.08 0.07 0.07 0.06 0.06 0.09 0.08 0.06 0.06 0.05 0.05 0.04 0.03 0.03 0.03 0.03 0.03 0.03 0.03 0.03 0.04 0.06
0.04 0.04 0.05 0.06 0.04 0.02 0.02 0.02 0.01 0.02 0.03 0.04 0.05 0.06 0.06 0.06 0.05 0.06 0.07 0.08 0.07 0.07 0.08 0.07 0.05 0.05 0.08 0.10 0.08 0.07 0.07 0.06 0.05 0.04 0.04 0.03 0.03 0.02 0.02 0.03 0.03 0.03 0.03
0.03 0.05 0.07 0.07 0.07 0.06 0.05 0.04 0.02 0.02 0.03 0.06 0.08 0.07 0.07 0.05 0.05 0.04 0.04 0.06 0.07 0.07 0.07 0.06 0.05 0.06 0.07 0.10 0.10 0.09 0.07 0.07 0.06 0.05 0.04 0.03 0.03 0.02 0.02 0.03 0.03 0.02 0.02
0.04 0.05 0.07 0.07 0.07 0.06 0.06 0.04 0.03 0.02 0.03 0.06 0.06 0.05 0.05 0.04 0.04 0.04 0.03 0.04 0.06 0.06 0.04 0.03 0.03 0.05 0.07 0.08 0.11 0.09 0.07 0.08 0.08 0.08 0.06 0.04 0.03 0.02 0.02 0.02 0.02 0.03 0.03
0.05 0.05 0.06 0.07 0.06 0.04 0.03 0.02 0.02 0.02 0.03 0.03 0.03 0.04 0.04 0.03 0.03 0.03 0.03 0.03 0.03 0.03 0.02 0.02 0.01 0.03 0.06 0.05 0.08 0.08 0.08 0.08 0.09 0.09 0.08 0.06 0.05 0.03 0.02 0.02 0.02 0.03 0.03
0.04 0.05 0.06 0.05 0.04 0.04 0.03 0.03 0.02 0.02 0.02 0.02 0.02 0.03 0.03 0.03 0.03 0.02 0.02 0.02 0.02 0.02 0.02 0.02 0.01 0.02 0.05 0.04 0.05 0.04 0.04 0.04 0.04 0.06 0.06 0.06 0.06 0.05 0.04 0.04 0.04 0.04 0.04
0.04 0.04 0.04 0.03 0.03 0.04 0.04 0.03 0.03 0.02 0.02 0.01 0.02 0.03 0.02 0.02 0.02 0.01 0.02 0.02 0.01 0.01 0.02 0.02 0.01 0.02 0.04 0.04 0.04 0.04 0.04 0.03 0.03 0.03 0.04 0.04 0.04 0.06 0.05 0.04 0.04 0.04 0.04
0.05 0.05 0.04 0.02 0.02 0.03 0.04 0.04 0.04 0.03 0.02 0.01 0.02 0.02 0.02 0.01 0.02 0.02 0.02 0.02 0.01 0.01 0.01 0.01 0.01 0.01 0.03 0.04 0.06 0.05 0.05 0.04 0.03 0.03 0.03 0.03 0.03 0.04 0.06 0.05 0.05 0.04 0.04
0.06 0.07 0.05 0.03 0.03 0.04 0.03 0.03 0.05 0.04 0.03 0.03 0.03 0.02 0.01 0.01 0.02 0.02 0.02 0.02 0.01 0.01 0.02 0.02 0.02 0.01 0.02 0.03 0.05 0.05 0.06 0.05 0.04 0.04 0.04 0.03 0.03 0.03 0.03 0.04 0.05 0.05 0.05
0.07 0.08 0.08 0.08 0.05 0.04 0.03 0.03 0.04 0.03 0.04 0.05 0.04 0.02 0.01 0.01 0.02 0.03 0.02 0.02 0.01 0.02 0.02 0.02 0.02 0.02 0.02 0.02 0.04 0.04 0.05 0.05 0.04 0.04 0.03 0.03 0.03 0.03 0.02 0.02 0.03 0.04 0.05
0.09 0.10 0.11 0.09 0.06 0.05 0.05 0.05 0.05 0.04 0.04 0.05 0.04 0.02 0.02 0.02 0.02 0.03 0.02 0.02 0.02 0.02 0.01 0.01 0.02 0.01 0.02 0.01 0.03 0.04 0.04 0.04 0.03 0.03 0.03 0.03 0.03 0.04 0.03 0.01 0.01 0.03 0.05
0.09 0.08 0.08 0.08 0.06 0.06 0.08 0.08 0.07 0.05 0.04 0.04 0.03 0.04 0.04 0.03 0.03 0.03 0.03 0.03 0.03 0.03 0.02 0.02 0.01 0.02 0.02 0.03 0.04 0.04 0.04 0.04 0.03 0.03 0.04 0.04 0.03 0.04 0.04 0.03 0.02 0.02 0.03
0.07 0.08 0.07 0.05 0.05 0.04 0.05 0.05 0.05 0.04 0.04 0.04 0.05 0.05 0.05 0.04 0.03 0.03 0.03 0.03 0.03 0.03 0.02 0.02 0.02 0.02 0.03 0.05 0.06 0.07 0.06 0.06 0.05 0.05 0.05 0.06 0.05 0.04 0.04 0.03 0.02 0.01 0.02
0.05 0.05 0.06 0.06 0.05 0.05 0.06 0.04 0.02 0.02 0.03 0.03 0.04 0.05 0.07 0.06 0.04 0.03 0.03 0.03 0.02 0.03 0.03 0.03 0.03 0.03 0.04 0.05 0.06 0.07 0.07 0.06 0.06 0.05 0.04 0.05 0.05 0.04 0.04 0.03 0.03 0.03 0.03
0.07 0.06 0.06 0.06 0.06 0.06 0.07 0.04 0.02 0.01 0.02 0.02 0.04 0.05 0.05 0.06 0.06 0.04 0.02 0.02 0.03 0.04 0.05 0.04 0.04 0.04 0.04 0.05 0.05 0.04 0.04 0.04 0.03 0.03 0.02 0.03 0.04 0.04 0.05 0.05 0.04 0.05 0.05
MSLP
1014.79 1014.93 1014.98 1014.98 1014.96 1014.97 1015.01 1015.09 1015.20 1015.33 1015.47 1015.58 1015.69 1015.78 1015.88 1016.00 1016.14 1016.30 1016.48 1016.66 1016.81 1016.92 1016.99 1017.03 1017.03 1017.03 1017.03 1017.05 1017.09 1017.16 1017.24 1017.33 1017.43 1017.52 1017.63 1017.73 1017.85 1017.98 1018.11 1018.23 1018.35 1018.44 1018.53
1014.72 1014.88 1014.97 1015.04 1015.10 1015.18 1015.30 1015.44 1015.60 1015.76 1015.90 1016.02 1016.12 1016.21 1016.30 1016.39 1016.51 1016.65 1016.80 1016.95 1017.08 1017.18 1017.26 1017.30 1017.32 1017.33 1017.34 1017.35 1017.37 1017.39 1017.41 1017.42 1017.44 1017.46 1017.50 1017.56 1017.64 1017.75 1017.88 1018.02 1018.16 1018.28 1018.39
1014.56 1014.74 1014.88 1015.03 1015.19 1015.38 1015.58 1015.81 1016.03 1016.22 1016.39 1016.52 1016.61 1016.69 1016.75 1016.81 1016.89 1016.98 1017.08 1017.17 1017.26 1017.33 1017.39 1017.43 1017.47 1017.50 1017.53 1017.55 1017.56 1017.55 1017.53 1017.48 1017.42 1017.37 1017.33 1017.32 1017.35 1017.43 1017.54 1017.69 1017.84 1018.00 1018.15
1014.38 1014.57 1014.77 1014.99 1015.25 1015.54 1015.84 1016.15 1016.43 1016.67 1016.86 1016.99 1017.08 1017.14 1017.18 1017.21 1017.24 1017.27 1017.30 1017.33 1017.35 1017.38 1017.40 1017.42 1017.46 1017.51 1017.56 1017.61 1017.63 1017.63 1017.58 1017.50 1017.38 1017.25 1017.13 1017.04 1017.00 1017.02 1017.09 1017.22 1017.38 1017.57 1017.76
1014.23 1014.43 1014.67 1014.96 1015.30 1015.67 1016.06 1016.42 1016.75 1017.01 1017.22 1017.36 1017.46 1017.51 1017.54 1017.55 1017.54 1017.52 1017.48 1017.44 1017.38 1017.33 1017.30 1017.29 1017.31 1017.37 1017.45 1017.53 1017.59 1017.61 1017.57 1017.47 1017.30 1017.11 1016.90 1016.71 1016.58 1016.51 1016.52 1016.61 1016.76 1016.97 1017.22
1014.17 1014.36 1014.63 1014.97 1015.36 1015.79 1016.21 1016.61 1016.95 1017.22 1017.43 1017.58 1017.69 1017.75 1017.79 1017.80 1017.78 1017.73 1017.64 1017.52 1017.38 1017.25 1017.14 1017.08 1017.07 1017.13 1017.22 1017.34 1017.45 1017.50 1017.49 1017.38 1017.19 1016.93 1016.63 1016.34 1016.09 1015.91 1015.83 1015.86 1015.99 1016.21 1016.50
1014.19 1014.39 1014.67 1015.03 1015.44 1015.88 1016.31 1016.70 1017.03 1017.29 1017.50 1017.65 1017.77 1017.87 1017.94 1017.97 1017.97 1017.91 1017.79 1017.61 1017.40 1017.18 1016.98 1016.85 1016.79 1016.82 1016.92 1017.07 1017.21 1017.31 1017.33 1017.23 1017.02 1016.70 1016.32 1015.91 1015.54 1015.24 1015.05 1014.99 1015.08 1015.30 1015.64
1014.28 1014.48 1014.77 1015.13 1015.54 1015.96 1016.36 1016.72 1017.01 1017.24 1017.43 1017.59 1017.73 1017.87 1018.00 1018.09 1018.13 1018.09 1017.96 1017.74 1017.46 1017.16 1016.87 1016.64 1016.51 1016.50 1016.58 1016.74 1016.91 1017.04 1017.09 1017.00 1016.77 1016.41 1015.94 1015.43 1014.93 1014.50 1014.20 1014.06 1014.10 1014.32 1014.70
1014.37 1014.58 1014.88 1015.24 1015.63 1016.03 1016.38 1016.68 1016.92 1017.11 1017.28 1017.44 1017.62 1017.82 1018.01 1018.18 1018.28 1018.28 1018.16 1017.92 1017.58 1017.20 1016.81 1016.49 1016.28 1016.20 1016.24 1016.37 1016.55 1016.70 1016.76 1016.69 1016.44 1016.04 1015.51 1014.90 1014.29 1013.75 1013.34 1013.12 1013.12 1013.34 1013.76
1014.39 1014.63 1014.94 1015.30 1015.69 1016.05 1016.36 1016.61 1016.80 1016.95 1017.09 1017.26 1017.47 1017.72 1017.99 1018.23 1018.41 1018.46 1018.36 1018.11 1017.74 1017.29 1016.82 1016.40 1016.09 1015.93 1015.91 1016.00 1016.16 1016.30 1016.37 1016.29 1016.04 1015.61 1015.03 1014.36 1013.67 1013.04 1012.55 1012.27 1012.24 1012.46 1012.92
1014.28 1014.55 1014.89 1015.27 1015.65 1016.00 1016.28 1016.49 1016.64 1016.76 1016.89 1017.06 1017.30 1017.60 1017.92 1018.24 1018.48 1018.58 1018.52 1018.28 1017.88 1017.38 1016.85 1016.34 1015.95 1015.70 1015.60 1015.64 1015.75 1015.87 1015.92 1015.84 1015.58 1015.14 1014.54 1013.84 1013.11 1012.44 1011.91 1011.60 1011.55 1011.77 1012.26
1014.01 1014.32 1014.70 1015.10 1015.50 1015.84 1016.11 1016.30 1016.43 1016.53 1016.66 1016.83 1017.09 1017.42 1017.79 1018.15 1018.44 1018.59 1018.56 1018.34 1017.95 1017.43 1016.85 1016.30 1015.83 1015.51 1015.34 1015.31 1015.36 1015.44 1015.47 1015.38 1015.12 1014.68 1014.09 1013.40 1012.67 1012.00 1011.47 1011.16 1011.11 1011.34 1011.84
1013.57 1013.92 1014.33 1014.77 1015.19 1015.55 1015.83 1016.02 1016.15 1016.25 1016.37 1016.54 1016.80 1017.14 1017.53 1017.92 1018.24 1018.43 1018.44 1018.25 1017.88 1017.38 1016.80 1016.22 1015.72 1015.34 1015.11 1015.02 1015.02 1015.05 1015.05 1014.94 1014.69 1014.28 1013.73 1013.08 1012.40 1011.76 1011.27 1010.97 1010.94 1011.17 1011.67
1013.02 1013.39 1013.82 1014.29 1014.73 1015.12 1015.42 1015.63 1015.77 1015.87 1015.99 1016.16 1016.41 1016.73 1017.11 1017.50 1017.84 1018.05 1018.10 1017.96 1017.64 1017.19 1016.65 1016.10 1015.60 1015.21 1014.94 1014.80 1014.74 1014.73 1014.70 1014.59 1014.35 1013.98 1013.49 1012.91 1012.30 1011.74 1011.29 1011.04 1011.02 1011.24 1011.71
1012.40 1012.78 1013.22 1013.70 1014.16 1014.57 1014.89 1015.13 1015.28 1015.40 1015.51 1015.67 1015.89 1016.18 1016.53 1016.90 1017.22 1017.45 1017.54 1017.46 1017.22 1016.85 1016.39 1015.90 1015.45 1015.08 1014.81 1014.64 1014.55 1014.50 1014.44 1014.33 1014.11 1013.79 1013.37 1012.87 1012.36 1011.88 1011.51 1011.29 1011.28 1011.49 1011.90
1011.81 1012.17 1012.60 1013.07 1013.54 1013.96 1014.30 1014.55 1014.72 1014.85 1014.95 1015.08 1015.27 1015.52 1015.82 1016.14 1016.44 1016.67 1016.79 1016.78 1016.63 1016.37 1016.02 1015.63 1015.26 1014.94 1014.70 1014.53 1014.43 1014.36 1014.28 1014.16 1013.98 1013.71 1013.36 1012.95 1012.53 1012.14 1011.84 1011.66 1011.65 1011.82 1012.17
1011.31 1011.64 1012.04 1012.49 1012.94 1013.35 1013.70 1013.97 1014.15 1014.27 1014.37 1014.47 1014.61 1014.80 1015.03 1015.30 1015.56 1015.78 1015.93 1015.98 1015.92 1015.77 1015.55 1015.28 1015.02 1014.78 1014.58 1014.44 1014.34 1014.26 1014.18 1014.07 1013.91 1013.69 1013.41 1013.09 1012.76 1012.46 1012.21 1012.06 1012.04 1012.16 1012.43
1010.94 1011.23 1011.59 1012.01 1012.43 1012.83 1013.17 1013.44 1013.63 1013.74 1013.82 1013.89 1013.98 1014.10 1014.27 1014.47 1014.68 1014.87 1015.03 1015.12 1015.15 1015.10 1015.00 1014.86 1014.70 1014.55 1014.42 1014.31 1014.23 1014.16 1014.08 1013.99 1013.86 1013.69 1013.48 1013.24 1012.99 1012.75 1012.55 1012.43 1012.39 1012.46 1012.65
1010.71 1010.98 1011.30 1011.68 1012.07 1012.45 1012.78 1013.04 1013.22 1013.33 1013.39 1013.42 1013.46 1013.51 1013.60 1013.73 1013.87 1014.03 1014.17 1014.29 1014.36 1014.40 1014.39 1014.35 1014.29 1014.23 1014.16 1014.10 1014.05 1014.00 1013.95 1013.88 1013.79 1013.67 1013.52 1013.35 1013.17 1013.00 1012.84 1012.73 1012.68 1012.71 1012.82
1010.63 1010.88 1011.18 1011.52 1011.88 1012.23 1012.54 1012.78 1012.96 1013.06 1013.10 1013.10 1013.09 1013.08 1013.09 1013.14 1013.21 1013.30 1013.41 1013.51 1013.61 1013.68 1013.74 1013.77 1013.79 1013.79 1013.78 1013.78 1013.76 1013.75 1013.72 1013.69 1013.65 1013.59 1013.50 1013.40 1013.29 1013.17 1013.06 1012.96 1012.91 1012.91 1012.98
1010.67 1010.91 1011.19 1011.51 1011.84 1012.16 1012.45 1012.68 1012.84 1012.93 1012.95 1012.93 1012.87 1012.81 1012.75 1012.71 1012.70 1012.72 1012.76 1012.83 1012.90 1012.97 1013.05 1013.12 1013.18 1013.23 1013.27 1013.31 1013.34 1013.37 1013.39 1013.41 1013.42 1013.42 1013.41 1013.38 1013.33 1013.27 1013.21 1013.14 1013.10 1013.10 1013.14
1010.80 1011.04 1011.32 1011.61 1011.92 1012.22 1012.48 1012.69 1012.84 1012.91 1012.92 1012.87 1012.78 1012.67 1012.55 1012.44 1012.34 1012.27 1012.24 1012.23 1012.24 1012.28 1012.34 1012.41 1012.48 1012.56 1012.63 1012.71 1012.79 1012.86 1012.94 1013.02 1013.09 1013.16 1013.23 1013.27 1013.30 1013.30 1013.29 1013.28 1013.27 1013.28 1013.33
1010.99 1011.24 1011.50 1011.78 1012.06 1012.33 1012.56 1012.75 1012.88 1012.94 1012.94 1012.88 1012.76 1012.61 1012.44 1012.26 1012.09 1011.93 1011.81 1011.71 1011.65 1011.63 1011.64 1011.68 1011.74 1011.81 1011.91 1012.01 1012.12 1012.25 1012.38 1012.52 1012.67 1012.81 1012.94 1013.07 1013.17 1013.25 1013.31 1013.36 1013.40 1013.45 1013.54
1011.22 1011.46 1011.70 1011.95 1012.20 1012.43 1012.63 1012.80 1012.91 1012.96 1012.95 1012.87 1012.75 1012.57 1012.36 1012.13 1011.90 1011.67 1011.46 1011.28 1011.14 1011.04 1010.98 1010.96 1010.99 1011.05 1011.14 1011.25 1011.39 1011.56 1011.73 1011.93 1012.13 1012.34 1012.55 1012.75 1012.92 1013.08 1013.22 1013.34 1013.45 1013.57 1013.70
1011.45 1011.66 1011.88 1012.09 1012.29 1012.48 1012.65 1012.78 1012.87 1012.91 1012.89 1012.82 1012.69 1012.51 1012.29 1012.03 1011.75 1011.46 1011.18 1010.93 1010.71 1010.53 1010.40 1010.33 1010.30 1010.33 1010.40 1010.51 1010.65 1010.83 1011.04 1011.27 1011.51 1011.77 1012.03 1012.29 1012.53 1012.76 1012.97 1013.17 1013.36 1013.55 1013.75
1011.65 1011.82 1011.99 1012.15 1012.31 1012.45 1012.58 1012.68 1012.75 1012.78 1012.77 1012.71 1012.59 1012.42 1012.20 1011.93 1011.63 1011.31 1010.99 1010.68 1010.40 1010.16 1009.96 1009.82 1009.74 1009.72 1009.75 1009.83 1009.96 1010.12 1010.33 1010.56 1010.82 1011.10 1011.39 1011.68 1011.97 1012.25 1012.53 1012.80 1013.07 1013.33 1013.61
Thickness
5754 5752 5751 5750 5749 5748 5747 5746 5746 5746 5746 5746 5745 5745 5744 5744 5743 5742 5742 5741 5740 5739 5737 5736 5735 5733 5732 5730 5729 5727 5725 5724 5723 5722 5720 5719 5717 5716 5715 5715 5713 5712 5710
5753 5751 5750 5749 5748 5747 5746 5745 5745 5744 5744 5744 5743 5743 5743 5742 5741 5740 5739 5739 5738 5736 5735 5734 5733 5731 5730 5728 5727 5726 5724 5722 5721 5720 5719 5718 5716 5715 5713 5712 5712 5710 5709
5752 5750 5749 5748 5747 5746 5745 5744 5743 5743 5742 5742 5741 5741 5740 5740 5739 5738 5737 5736 5735 5734 5733 5732 5730 5729 5728 5727 5725 5724 5722 5721 5720 5719 5718 5716 5715 5714 5712 5711 5710 5708 5707
5750 5748 5747 5746 5746 5744 5743 5742 5740 5738 5738 5738 5737 5738 5738 5738 5737 5737 5735 5734 5733 5732 5731 5730 5729 5727 5726 5725 5724 5722 5721 5720 5719 5718 5716 5715 5713 5712 5711 5710 5708 5707 5705
5749 5747 5745 5744 5743 5742 5740 5739 5737 5736 5734 5733 5734 5734 5735 5735 5735 5734 5733 5732 5732 5731 5730 5729 5727 5726 5725 5723 5722 5720 5719 5718 5717 5716 5715 5713 5712 5711 5709 5708 5706 5705 5703
5747 5745 5743 5741 5741 5739 5737 5736 5734 5733 5731 5731 5731 5731 5731 5732 5732 5731 5731 5731 5730 5729 5728 5727 5726 5724 5723 5721 5720 5718 5717 5716 5715 5714 5712 5711 5710 5709 5707 5706 5704 5702 5701
5744 5742 5740 5738 5737 5735 5734 5733 5731 5729 5727 5727 5725 5723 5725 5728 5728 5728 5728 5727 5727 5726 5725 5724 5723 5722 5720 5719 5717 5716 5715 5714 5712 5711 5710 5709 5708 5707 5705 5704 5702 5700 5699
5743 5741 5738 5736 5734 5733 5731 5729 5727 5724 5723 5724 5719 5715 5712 5715 5721 5724 5724 5724 5723 5723 5721 5720 5719 5718 5718 5716 5715 5714 5713 5711 5710 5709 5708 5707 5705 5704 5703 5701 5700 5698 5697
5740 5738 5736 5734 5732 5730 5728 5726 5725 5721 5718 5719 5719 5714 5707 5704 5709 5716 5718 5719 5719 5718 5718 5718 5716 5715 5714 5713 5712 5711 5710 5709 5708 5707 5706 5704 5703 5702 5700 5699 5698 5697 5695
5737 5736 5734 5732 5730 5728 5726 5724 5722 5720 5717 5714 5714 5715 5713 5710 5705 5705 5710 5713 5714 5714 5714 5715 5714 5713 5711 5709 5708 5708 5707 5706 5705 5704 5703 5702 5701 5699 5698 5697 5696 5695 5694
5733 5732 5730 5728 5727 5725 5723 5721 5719 5717 5715 5713 5711 5710 5709 5707 5706 5702 5700 5704 5707 5710 5711 5711 5711 5709 5708 5706 5705 5705 5703 5703 5702 5701 5700 5699 5697 5696 5695 5694 5694 5693 5691
5729 5729 5727 5725 5723 5722 5720 5719 5717 5715 5713 5711 5710 5708 5706 5703 5702 5700 5698 5698 5699 5703 5706 5707 5707 5706 5705 5704 5703 5702 5700 5700 5699 5697 5696 5695 5694 5693 5692 5691 5690 5690 5689
5723 5724 5724 5722 5720 5719 5717 5715 5713 5711 5710 5709 5707 5706 5705 5704 5703 5700 5697 5695 5695 5697 5700 5701 5702 5702 5701 5700 5699 5698 5696 5696 5694 5693 5692 5691 5689 5688 5688 5687 5686 5686 5685
5721 5721 5720 5718 5717 5715 5714 5711 5710 5708 5707 5706 5706 5704 5703 5703 5701 5699 5696 5693 5689 5689 5691 5693 5696 5696 5696 5695 5694 5693 5692 5691 5690 5689 5687 5686 5685 5684 5683 5683 5682 5682 5681
5719 5717 5716 5714 5713 5711 5709 5707 5705 5704 5703 5702 5701 5701 5700 5700 5699 5697 5695 5693 5687 5682 5682 5686 5688 5690 5690 5689 5688 5687 5686 5686 5685 5684 5683 5682 5680 5679 5678 5678 5677 5677 5676
5715 5713 5711 5710 5708 5706 5704 5702 5701 5700 5698 5698 5697 5697 5696 5695 5694 5693 5692 5689 5687 5682 5678 5680 5682 5683 5683 5683 5682 5681 5681 5681 5680 5679 5678 5677 5676 5674 5673 5673 5672 5672 5671
5711 5709 5707 5705 5704 5701 5700 5697 5696 5696 5694 5693 5692 5692 5691 5691 5689 5688 5686 5684 5682 5680 5675 5675 5676 5677 5677 5676 5676 5675 5675 5674 5674 5673 5673 5672 5670 5669 5668 5668 5667 5666 5666
5706 5705 5703 5701 5700 5698 5695 5693 5691 5691 5689 5687 5686 5686 5686 5686 5683 5682 5680 5679 5678 5676 5673 5670 5670 5670 5671 5671 5670 5669 5669 5668 5668 5668 5668 5667 5666 5664 5663 5663 5662 5661 5660
5701 5700 5698 5696 5695 5693 5691 5689 5687 5686 5684 5683 5681 5681 5680 5679 5677 5676 5675 5674 5673 5673 5670 5667 5664 5664 5665 5665 5663 5663 5663 5663 5663 5663 5663 5662 5661 5659 5658 5657 5657 5656 5655
5696 5694 5692 5691 5690 5688 5686 5685 5683 5681 5679 5678 5677 5677 5676 5675 5673 5672 5671 5670 5668 5666 5664 5662 5659 5658 5658 5658 5657 5654 5653 5654 5655 5657 5657 5656 5655 5654 5652 5652 5651 5651 5650
5691 5689 5687 5685 5685 5683 5682 5680 5679 5677 5675 5673 5672 5672 5672 5672 5671 5670 5668 5666 5664 5661 5658 5656 5653 5652 5651 5650 5649 5649 5647 5647 5648 5649 5649 5649 5648 5648 5647 5646 5646 5646 5645
5684 5682 5681 5680 5679 5679 5677 5676 5674 5672 5670 5668 5667 5667 5667 5667 5666 5666 5665 5664 5662 5658 5654 5651 5649 5647 5647 5646 5645 5644 5641 5639 5638 5642 5641 5641 5642 5641 5642 5641 5641 5640 5639
5677 5675 5675 5674 5673 5673 5672 5671 5669 5667 5665 5664 5663 5662 5663 5662 5661 5660 5659 5659 5658 5657 5655 5651 5648 5646 5644 5644 5642 5640 5638 5635 5634 5637 5635 5634 5636 5635 5637 5637 5636 5635 5634
5670 5669 5669 5667 5666 5666 5666 5665 5664 5662 5660 5660 5659 5659 5657 5656 5655 5654 5653 5652 5651 5651 5651 5650 5647 5646 5645 5643 5640 5638 5635 5633 5632 5632 5631 5628 5630 5630 5632 5632 5632 5630 5629
5663 5663 5662 5661 5660 5660 5660 5659 5657 5655 5654 5654 5654 5654 5653 5651 5650 5648 5647 5645 5645 5646 5647 5646 5645 5644 5642 5640 5637 5634 5630 5627 5625 5626 5626 5624 5625 5624 5625 5626 5627 5626 5624
5658 5658 5657 5656 5656 5655 5654 5653 5652 5650 5648 5648 5648 5648 5648 5647 5645 5644 5642 5641 5639 5640 5640 5640 5639 5639 5637 5636 5634 5631 5628 5624 5621 5619 5622 5620 5619 5618 5618 5620 5621 5620 5619